Flag for France Weather past 2 weeks in Aurillac, France

Now
44 °F

Passing clouds.


Feels Like: 44 °F
Forecast: 41 / 71 °F
Wind: 2 mph from Northeast

Location: Aurillac

Current Time: May 30, 2015 at 6:56:14 AM

Latest Report: May 30, 2015 at 6:00 AM


Visibility: 2 mi

Pressure: 30.10 "Hg

Humidity: 92%

Dew point: 42 °F

Location of AurillacLocation

Historic Weather in Aurillac — Graph

°F

Aurillac temperature yesterday

Maximum temperature yesterday: 66 °F (at 4:00 PM)
Minimum temperature yesterday: 43 °F (at 6:00 AM)
Average temperature yesterday: 57 °F

Past Weeks' High & Low Weather Summary

 TemperatureHumidityPressure
High71 °F (May 28, 5:00 PM)94% (May 17, 6:00 AM)30.39 "Hg (May 17, 6:00 AM)
Low33 °F (May 21, 6:00 AM)25% (May 28, 5:00 PM)29.84 "Hg (May 18, 7:00 PM)
Average53 °F67%30.13 "Hg
* Reported May 15 4:00 AM — May 30 4:00 AM, Aurillac, Weather by CustomWeather, © 2015

Note: Actual official high and low records may vary slightly from our data, if they occured in-between our weather recording intervals... More about our weather records

Advertising

Aurillac weather history for previous 24 hours

 ConditionsComfort  
Time TempWeatherWind HumidityBarometerVisibility
4:00 AM
Sat, May 30
47 °FCool.3 mph91%30.09 "Hg11 mi
3:00 AM47 °FCool.No wind88%30.08 "Hg28 mi
2:00 AM50 °FCool.No wind82%30.08 "Hg34 mi
1:00 AM51 °FCool.No wind80%30.07 "Hg37 mi
12:00 AM54 °FCool.1 mph72%30.06 "Hg37 mi
10:00 PM
Fri, May 29
58 °FCool.5 mph62%30.01 "Hg37 mi
9:00 PM61 °FRefreshingly cool.6 mph57%29.98 "Hg12 mi
8:00 PM64 °FMild.9 mph54%29.95 "Hg12 mi
7:00 PM64 °FOvercast.9 mph54%29.93 "Hg12 mi
6:00 PM65 °FMild.10 mph52%29.93 "Hg12 mi
5:00 PM66 °FPartly sunny.9 mph53%29.93 "Hg22 mi
4:00 PM66 °FScattered clouds.8 mph51%29.95 "Hg22 mi
3:00 PM65 °FScattered clouds.8 mph52%29.96 "Hg22 mi
2:00 PM64 °FOvercast.8 mph52%29.98 "Hg34 mi
1:00 PM63 °FOvercast.9 mph54%29.99 "Hg22 mi
12:00 PM64 °FOvercast.9 mph55%29.98 "Hg22 mi
11:00 AM62 °FScattered clouds.8 mph51%29.99 "Hg22 mi
10:00 AM60 °FCool.3 mph60%29.99 "Hg34 mi
9:00 AM55 °FOvercast.2 mph72%30.02 "Hg22 mi
8:00 AM51 °FPassing clouds.2 mph74%30.02 "Hg25 mi
7:00 AM44 °FPassing clouds.5 mph83%30.05 "Hg19 mi
6:00 AM43 °FClear.5 mph84%30.06 "Hg12 mi
Weather by CustomWeather, © 2015

See weather overviewHow to use our weather pages